Temperature
22 21 21 20 20 21 23 24 25 25 24 24 24 23 22 21 21 19 19 20 20 20 20 20 20 20 20 20 20 19 19 19 19 19 19 19 19 19 19 19 19 19 19 19 19 19 18 18 18
22 22 21 21 21 21 23 25 25 25 25 24 24 23 22 21 20 20 19 20 20 20 20 20 20 20 20 19 20 19 19 19 19 19 19 19 19 19 19 19 19 19 19 19 19 19 18 18 18
22 21 21 20 22 22 24 25 25 26 26 25 24 23 22 21 20 20 20 20 20 20 20 20 20 20 20 19 19 19 19 19 19 19 19 19 19 19 19 19 19 19 19 19 19 18 18 18 18
22 22 21 21 23 25 25 26 26 26 25 25 23 22 22 21 21 20 20 20 20 20 20 20 20 20 20 20 19 19 19 19 19 19 19 19 19 19 19 19 19 19 19 19 18 18 18 18 18
23 22 21 22 24 26 27 27 27 26 25 24 23 22 21 21 21 21 20 20 20 20 20 20 20 20 20 19 19 19 19 19 19 19 19 19 19 19 19 19 19 19 19 19 19 18 18 18 18
23 22 22 23 25 26 27 27 26 25 24 23 23 22 21 21 21 21 21 20 20 20 20 20 20 20 20 20 19 19 19 20 19 19 19 19 19 19 19 19 19 19 19 19 19 19 18 18 18
23 21 23 24 25 26 27 27 26 25 25 24 23 21 21 21 21 21 21 20 20 20 20 20 20 20 20 20 19 19 19 19 19 19 19 19 19 19 19 19 19 19 19 19 19 19 18 18 18
24 22 23 24 25 26 27 27 27 26 25 24 23 22 21 21 21 21 20 20 20 20 20 20 20 20 20 20 19 19 19 19 19 19 19 19 19 19 19 19 19 19 19 19 19 19 18 18 18
25 22 23 25 26 26 27 27 27 26 25 24 24 23 22 21 21 20 20 20 20 20 20 20 20 20 20 20 19 19 19 19 19 19 19 19 19 19 19 19 19 19 19 19 19 19 18 18 18
25 23 25 27 27 27 28 27 27 25 24 23 23 22 22 21 21 21 20 20 20 20 20 20 20 20 19 19 19 19 19 19 19 19 19 19 19 19 19 19 19 19 19 19 18 18 18 18 18
25 25 27 28 29 29 28 28 27 25 23 23 22 22 21 21 21 21 20 20 20 20 20 20 20 20 20 20 19 19 19 19 19 19 19 19 19 19 19 19 19 19 19 19 18 18 18 18 18
27 27 28 29 29 29 28 28 27 25 25 24 23 22 22 21 21 21 21 20 20 20 20 20 20 20 20 20 19 19 19 19 19 19 19 19 19 19 19 19 19 19 19 19 18 18 18 18 18
28 28 29 29 29 29 29 28 27 25 25 24 23 23 22 22 21 21 21 21 20 20 20 20 20 20 20 20 19 19 19 19 19 19 19 19 19 19 19 19 19 19 18 18 18 18 18 18 18
28 29 29 29 29 29 28 27 26 25 24 24 23 22 22 22 22 21 21 21 20 20 20 20 20 20 20 20 20 19 19 19 19 19 19 19 19 19 19 19 19 19 19 18 18 18 18 18 18
29 28 28 28 29 29 28 26 26 25 24 24 23 23 22 22 22 22 21 21 21 20 20 20 20 20 20 20 20 19 19 19 19 19 19 19 19 19 19 19 19 19 19 18 18 18 18 18 18
27 26 26 28 28 28 26 25 26 25 25 24 23 23 22 22 22 22 21 21 21 21 20 20 20 20 20 20 20 19 19 19 19 19 19 19 19 19 19 19 19 19 19 18 18 18 18 18 18
25 25 26 27 28 28 26 25 26 26 25 24 23 23 22 22 22 22 22 21 21 21 21 20 20 20 20 20 20 19 19 19 19 19 19 19 19 19 19 19 19 19 18 18 18 18 18 18 18
25 26 27 27 28 27 26 25 25 26 25 24 23 23 22 22 22 22 22 22 21 21 21 21 20 20 20 20 20 19 19 19 19 19 19 19 19 19 19 19 19 19 19 18 18 18 18 18 18
27 27 26 27 28 27 26 25 25 25 25 24 23 23 22 22 23 22 22 22 21 21 21 21 20 20 20 20 20 19 19 19 19 19 19 19 19 19 19 19 19 19 19 19 18 18 18 18 18
27 27 27 27 28 27 26 25 25 25 25 25 24 23 23 23 22 22 22 22 22 21 21 21 20 20 20 20 20 20 19 19 19 19 19 19 19 19 19 19 19 19 19 19 19 18 18 18 18
27 27 27 27 27 27 26 25 25 25 25 25 24 24 23 23 23 22 22 22 22 22 21 21 21 20 20 20 20 19 19 19 19 19 19 19 19 19 19 19 19 19 19 19 19 18 18 18 18
27 28 28 28 26 24 25 23 24 24 24 24 24 24 24 23 23 23 23 22 22 22 22 21 21 21 20 20 20 20 19 19 19 19 19 19 19 19 19 19 19 19 19 19 19 18 18 18 18
28 28 28 27 25 24 24 23 23 23 23 23 24 24 24 24 23 23 23 23 23 22 22 21 21 21 20 20 20 20 20 19 19 19 19 19 19 19 19 19 19 19 19 19 19 18 18 18 18
29 27 26 23 22 23 23 23 23 22 23 23 24 25 25 24 24 23 23 23 23 22 22 22 21 21 21 20 20 20 20 20 19 19 19 19 19 19 19 19 19 19 19 19 18 18 18 18 18
27 24 23 23 21 22 22 23 22 24 24 24 24 25 25 24 24 23 23 23 23 22 22 22 21 21 21 20 20 20 20 20 19 19 19 19 19 19 19 19 19 19 18 18 18 18 18 18 18
26 24 22 23 22 22 22 23 23 25 25 26 26 25 25 24 24 24 23 23 23 23 22 22 22 21 21 21 20 20 20 20 20 19 19 19 19 19 19 19 19 18 18 18 18 18 18 18 17
26 24 22 21 22 22 22 23 23 24 24 24 24 24 24 24 24 24 24 23 23 23 23 22 22 22 21 21 21 21 20 20 20 20 19 19 19 19 19 19 19 18 18 18 18 18 18 17 17
26 24 21 21 21 22 22 23 22 23 23 23 23 24 24 24 24 24 24 24 23 23 23 22 22 22 22 21 21 21 20 20 20 20 19 19 19 19 19 19 19 18 18 18 18 18 17 17 17
25 24 21 19 20 21 21 22 24 23 23 23 23 24 24 24 24 24 23 23 23 23 23 22 22 22 21 21 21 21 20 20 20 20 20 19 19 19 19 19 18 18 18 18 18 18 17 17 17
26 24 21 21 21 19 20 21 25 23 23 23 24 24 24 24 24 24 24 23 23 23 23 22 22 22 22 21 21 21 20 20 20 20 20 19 19 19 19 19 18 18 18 18 18 18 17 17 17
Wind_Speed
8 6 3 1 2 3 3 3 5 5 5 7 10 11 9 7 5 6 2 6 8 7 7 10 12 13 14 14 14 14 14 15 15 15 16 16 16 16 17 17 17 17 17 16 15 15 15 14 14
5 4 2 1 3 4 2 3 7 7 9 10 11 11 9 7 6 7 4 6 9 9 8 10 12 13 13 13 13 14 14 14 15 15 15 16 16 16 16 16 16 16 16 15 15 14 14 13 12
4 3 1 2 1 3 3 5 8 9 10 8 6 7 6 5 6 5 6 8 8 8 8 10 12 13 13 13 13 13 14 14 14 15 15 15 15 15 16 16 16 15 15 15 15 14 13 12 11
1 1 1 2 2 3 6 7 10 11 9 9 8 7 5 5 4 8 10 9 10 7 8 10 11 12 12 12 12 13 13 13 13 14 14 14 15 14 15 15 15 15 14 14 14 13 12 11 11
1 2 3 2 3 4 5 9 9 10 6 9 11 8 5 5 11 13 11 10 9 7 7 9 10 12 13 13 12 12 13 13 13 13 13 14 14 14 13 13 14 14 14 14 13 12 11 11 10
2 3 3 2 4 4 4 8 11 14 13 12 11 8 4 6 11 11 10 9 8 7 6 8 11 13 13 13 12 12 12 12 13 13 13 13 13 13 12 12 13 13 12 12 12 11 10 9 9
2 2 1 2 4 4 5 6 9 12 11 8 9 7 4 6 8 10 10 9 7 7 6 5 7 9 11 12 12 12 12 12 12 12 12 12 12 12 12 12 11 11 12 11 11 10 9 8 8
3 2 1 1 4 3 5 6 8 11 9 10 7 7 6 7 9 10 9 7 7 6 5 4 5 6 7 9 11 11 11 11 11 11 11 10 10 10 10 10 10 10 10 10 9 9 8 7 7
2 3 1 4 5 5 7 9 8 8 10 7 6 7 10 12 12 11 8 6 5 6 4 4 4 5 6 7 9 10 10 10 9 9 9 8 6 6 6 8 9 10 10 9 9 8 7 6 6
4 3 5 5 6 7 8 10 10 8 11 9 11 11 13 12 12 11 9 7 6 6 4 4 4 4 5 6 7 7 7 7 6 6 6 6 5 5 5 7 8 9 8 8 8 7 6 5 4
4 5 3 3 6 8 8 8 8 11 8 12 16 15 13 11 10 9 8 7 7 6 5 4 4 4 5 4 5 5 5 5 5 5 6 6 5 4 3 3 5 5 6 5 5 5 4 3 3
3 3 2 3 5 7 7 7 8 8 10 15 17 17 13 11 9 9 8 7 6 6 5 4 4 4 4 5 4 5 4 4 3 4 6 5 3 3 3 2 3 3 3 3 3 2 3 4 4
2 1 1 3 4 6 9 9 9 10 15 17 16 15 14 12 9 8 8 8 8 7 6 5 5 4 4 4 3 4 4 4 4 4 5 6 4 3 3 2 3 3 3 3 2 2 3 3 3
3 2 2 3 4 6 11 9 8 11 17 16 15 14 13 12 11 9 9 8 8 7 6 5 5 4 4 3 3 3 4 4 4 4 4 5 5 4 3 3 2 2 3 3 3 3 2 2 2
1 1 2 1 3 5 10 6 8 14 16 16 15 13 13 11 11 11 10 9 9 8 7 7 6 4 4 4 4 4 5 5 3 3 4 5 5 5 4 3 2 2 3 3 2 2 2 2 2
3 3 1 3 3 4 8 6 8 13 16 14 13 13 12 10 11 11 11 9 9 9 8 7 7 5 4 4 3 3 4 5 4 4 4 5 5 5 4 3 2 3 3 2 2 2 2 1 1
4 1 3 4 3 4 6 5 7 10 14 13 12 11 11 10 10 10 12 11 10 10 9 7 6 6 4 3 3 3 4 4 4 4 3 4 4 4 4 3 2 3 2 1 2 2 2 1 1
4 3 3 4 3 4 4 5 8 9 12 12 12 11 11 11 11 11 11 11 10 9 9 8 7 6 5 3 3 3 2 2 2 3 3 4 4 4 4 3 2 3 2 1 1 2 1 1 2
4 4 5 6 3 3 4 7 11 10 10 11 11 11 11 11 10 11 11 11 10 9 8 7 7 6 5 3 3 2 2 1 1 2 3 4 4 4 4 2 2 2 2 2 2 2 2 1 1
3 4 4 4 1 2 4 5 8 11 13 14 15 14 13 11 9 10 10 11 10 10 9 8 8 7 5 4 3 3 2 2 2 2 2 4 4 4 4 3 3 2 2 2 1 2 1 1 2
4 3 3 2 3 4 4 1 3 5 6 8 11 12 13 15 14 13 12 11 11 11 10 9 8 7 6 5 3 2 2 1 1 1 1 2 4 4 3 4 3 2 3 2 2 2 2 1 1
5 5 2 0 2 2 2 2 5 6 5 8 9 11 13 13 12 13 13 13 13 12 10 9 9 8 7 6 5 5 4 3 3 3 2 2 2 3 3 3 3 2 2 2 2 2 2 2 1
5 3 1 1 1 2 3 2 5 2 5 8 10 12 13 14 14 15 14 14 12 12 11 9 9 8 7 6 6 5 4 3 2 2 2 2 1 2 3 3 3 3 3 3 2 2 2 2 3
2 4 6 5 5 2 3 2 4 5 9 8 9 10 11 12 14 13 12 10 10 10 10 9 9 8 7 7 6 6 6 5 4 3 3 2 1 1 2 2 3 3 3 3 3 2 3 3 2
3 5 4 6 4 4 3 1 6 7 7 9 11 11 11 11 12 12 12 11 11 11 11 10 9 8 7 7 7 7 7 7 6 5 4 4 2 2 2 2 2 2 3 3 3 2 2 2 2
2 8 7 4 4 5 3 2 6 5 4 5 8 9 10 11 11 12 13 12 12 11 11 10 10 8 8 7 7 6 6 5 5 5 5 4 4 4 3 3 3 3 3 3 3 2 2 2 2
2 2 7 7 2 0 4 3 5 3 3 4 6 9 10 11 11 12 11 12 12 12 11 11 11 9 8 8 7 6 6 5 5 5 4 3 3 3 4 4 3 3 3 3 3 2 2 2 2
5 6 6 5 3 2 4 3 4 4 4 4 6 9 10 10 9 9 9 10 10 10 10 10 10 10 8 8 7 7 6 6 5 5 5 4 4 4 4 3 3 3 2 3 3 2 2 2 2
1 3 5 4 5 6 3 6 6 8 7 7 7 8 9 10 10 9 8 9 9 8 8 8 9 8 8 7 6 5 5 5 5 4 5 5 4 4 4 4 3 3 3 3 2 2 2 2 2
5 6 7 5 3 5 5 7 6 5 5 7 7 7 8 10 9 9 9 8 8 8 8 8 8 8 8 8 7 6 5 5 5 4 4 4 4 4 4 4 3 3 3 3 3 4 3 3 2
Wind_Direction
178 179 177 217 32 45 56 75 101 90 68 67 76 83 79 64 81 121 170 134 125 125 124 121 120 118 116 113 112 111 111 111 112 114 116 118 119 122 125 128 130 131 130 130 132 128 129 128 127
166 181 198 13 65 67 48 100 93 95 121 111 84 82 77 70 84 111 118 130 127 127 125 123 121 119 117 116 114 113 113 113 114 116 119 120 119 122 127 127 128 129 131 130 128 128 129 128 129
177 202 156 56 74 123 110 114 111 105 112 103 87 66 69 93 107 120 139 135 120 119 121 124 121 121 121 119 118 117 116 116 116 117 122 121 122 123 126 127 128 129 132 133 132 132 135 134 134
165 119 45 67 92 129 124 125 121 109 88 79 93 70 58 79 106 125 135 127 118 118 125 127 127 128 127 126 124 122 121 120 120 120 122 122 125 126 128 130 131 132 135 135 136 137 137 138 139
82 72 39 35 85 94 113 123 116 106 94 92 93 92 74 75 109 125 129 124 123 124 128 129 129 135 135 131 129 125 122 122 122 122 120 122 124 126 129 132 133 135 137 138 140 141 142 145 146
34 55 56 54 90 103 112 111 105 102 110 109 104 103 91 115 118 131 131 126 128 131 128 126 127 135 135 134 133 130 126 126 127 127 126 127 128 131 133 136 139 140 142 142 145 149 151 152 153
118 83 122 138 117 115 122 109 110 118 123 125 124 104 117 126 129 131 129 128 128 125 121 122 126 129 132 134 136 136 136 134 133 131 131 132 136 139 142 145 147 146 146 149 152 157 160 159 157
167 102 30 130 128 127 133 110 121 122 117 126 123 125 147 158 135 122 120 123 123 119 120 123 125 128 132 136 138 140 142 141 139 136 137 138 141 144 151 154 154 154 156 157 160 167 169 166 164
146 92 170 182 146 150 136 113 110 98 109 107 97 121 140 139 127 119 115 109 119 127 134 136 139 135 137 142 142 145 144 144 139 137 141 141 139 143 153 161 164 163 166 167 172 176 179 182 183
142 156 208 189 154 152 145 136 130 109 102 100 102 113 126 125 127 127 130 133 134 139 145 141 137 135 143 142 137 141 143 144 141 141 140 143 142 150 160 168 169 170 175 179 182 186 189 200 199
157 189 199 156 151 150 140 133 124 125 129 144 139 138 137 131 132 133 135 137 143 145 138 129 130 129 128 121 132 138 142 147 146 144 146 145 144 147 145 150 162 172 182 187 186 188 199 209 202
158 218 190 155 140 141 142 127 118 133 150 148 144 144 145 143 147 145 142 139 133 129 127 124 119 116 118 122 131 139 145 147 149 157 152 143 139 145 153 154 163 171 186 183 188 193 196 201 199
165 204 190 164 134 131 120 118 117 125 135 141 142 143 146 149 149 145 142 138 133 133 132 128 121 119 116 108 128 136 141 144 155 150 150 152 143 146 156 166 164 173 179 181 181 189 189 187 192
229 199 226 164 148 135 125 123 111 139 141 143 146 149 154 154 150 145 144 146 144 145 145 139 127 124 114 115 122 128 144 152 149 147 154 155 155 158 151 145 153 163 174 173 175 178 175 178 173
352 69 343 172 150 144 118 112 138 150 148 149 152 155 158 159 153 154 158 154 152 150 150 148 142 132 125 120 123 126 141 137 139 149 149 147 148 152 147 143 145 161 166 151 148 141 135 142 155
25 53 322 264 172 156 116 153 168 155 150 154 158 160 160 163 161 160 159 156 153 149 149 154 149 139 134 128 126 126 138 139 147 150 146 148 148 149 140 135 151 170 159 146 134 136 134 159 171
17 326 260 270 209 147 119 161 177 164 153 154 158 160 159 160 163 165 165 161 156 155 150 149 144 146 145 131 121 123 132 138 149 148 143 158 160 150 143 141 159 150 134 131 163 144 151 170 180
255 275 271 252 223 136 136 166 171 176 158 160 162 161 160 166 172 170 165 160 157 154 151 146 145 150 145 128 104 97 105 120 137 156 170 169 167 157 146 144 150 136 126 133 132 154 160 176 184
221 253 266 260 233 155 172 169 178 180 166 164 167 169 170 175 175 165 163 159 156 154 152 150 152 158 146 135 131 124 143 160 160 187 182 174 168 159 152 150 144 140 151 166 154 152 147 172 140
240 250 278 297 310 134 165 186 186 182 182 176 172 176 176 170 168 167 166 164 164 166 163 158 162 163 160 162 161 160 163 173 178 183 178 180 167 165 167 158 164 162 153 144 130 134 139 204 153
279 233 257 251 16 43 97 357 199 203 184 175 177 177 177 176 176 175 175 173 170 173 173 171 170 169 171 167 148 125 87 65 83 157 192 201 179 172 165 164 169 165 161 175 186 162 155 202 256
264 241 236 313 61 306 114 218 259 204 183 186 186 179 179 178 176 178 176 176 179 180 177 171 171 172 173 165 160 165 167 182 205 199 198 210 183 170 166 169 168 163 157 177 196 160 165 168 228
229 224 242 286 126 33 15 127 279 194 191 204 195 188 183 179 178 179 180 180 179 177 175 174 171 173 174 174 175 173 184 197 203 181 183 207 211 186 180 174 166 169 172 186 185 166 165 180 195
214 39 25 43 62 17 287 164 267 217 206 204 199 190 184 179 181 180 178 172 174 175 174 173 172 180 179 178 179 180 186 189 184 190 191 209 217 236 221 177 170 176 183 190 195 196 188 196 201
75 81 26 4 12 262 282 157 245 236 207 189 189 189 186 177 176 175 173 173 175 177 178 175 175 184 185 182 186 188 186 183 187 190 194 195 205 221 229 205 187 192 195 194 187 191 207 209 210
215 136 153 190 226 279 327 249 258 263 215 175 173 169 174 175 175 177 178 175 174 174 175 176 180 184 184 184 192 192 186 183 189 189 187 191 200 212 213 199 201 200 194 196 184 190 206 211 225
162 164 167 146 169 302 290 298 322 19 85 122 149 160 171 175 174 176 174 173 175 174 176 178 180 186 190 191 190 191 189 188 192 194 190 192 204 209 201 196 197 199 196 190 180 193 206 206 228
146 150 94 112 146 247 294 273 228 223 176 152 161 169 173 170 168 172 174 177 179 178 177 177 179 185 188 191 194 197 196 196 195 191 197 200 207 206 195 201 199 202 200 189 189 203 212 217 244
135 88 103 115 143 157 224 267 229 203 190 173 174 167 164 169 174 178 181 179 176 169 167 173 180 181 184 190 194 193 191 195 194 198 206 206 206 197 195 194 194 191 193 197 192 211 216 226 252
166 159 141 146 211 171 172 256 263 203 193 165 163 159 164 174 179 176 173 170 171 176 177 178 179 185 188 186 185 193 194 192 197 205 209 203 204 206 200 193 187 194 198 199 197 212 214 209 231
Height
1510 1510 1510 1511 1512 1518 1517 1509 1502 1501 1503 1503 1502 1503 1507 1510 1514 1522 1518 1517 1516 1516 1515 1514 1514 1514 1514 1514 1514 1514 1514 1515 1515 1516 1517 1518 1519 1521 1522 1524 1525 1527 1528 1530 1531 1533 1534 1537 1539
1510 1510 1511 1511 1517 1528 1520 1507 1504 1502 1504 1504 1505 1507 1508 1512 1514 1516 1516 1517 1517 1516 1516 1515 1515 1514 1515 1515 1515 1516 1516 1517 1517 1518 1519 1520 1521 1522 1523 1525 1527 1528 1530 1531 1533 1534 1536 1538 1540
1510 1510 1512 1513 1518 1523 1517 1506 1503 1503 1503 1503 1507 1509 1511 1515 1516 1517 1517 1517 1517 1517 1517 1516 1516 1515 1516 1516 1517 1518 1518 1519 1519 1519 1521 1522 1523 1524 1526 1527 1529 1530 1532 1533 1534 1536 1538 1539 1541
1511 1512 1513 1516 1517 1508 1505 1503 1501 1503 1505 1506 1507 1512 1515 1517 1517 1517 1518 1518 1518 1518 1517 1517 1516 1515 1516 1517 1518 1519 1520 1520 1521 1522 1523 1524 1525 1526 1528 1529 1531 1532 1533 1535 1536 1538 1539 1541 1542
1511 1512 1516 1519 1513 1505 1502 1501 1501 1503 1506 1509 1509 1514 1518 1519 1518 1518 1519 1519 1519 1518 1518 1517 1514 1513 1515 1517 1519 1520 1521 1522 1523 1524 1525 1526 1527 1528 1529 1531 1532 1533 1535 1536 1538 1539 1541 1542 1543
1512 1513 1523 1525 1514 1506 1503 1502 1502 1505 1509 1511 1512 1516 1520 1521 1520 1520 1521 1521 1520 1520 1519 1518 1514 1513 1516 1518 1520 1521 1523 1524 1525 1526 1527 1528 1528 1529 1531 1532 1534 1535 1537 1538 1540 1541 1542 1543 1544
1514 1517 1522 1519 1514 1509 1504 1503 1504 1506 1509 1512 1513 1516 1521 1522 1522 1522 1522 1522 1522 1522 1521 1520 1518 1518 1519 1520 1521 1523 1524 1526 1527 1527 1529 1529 1530 1531 1532 1534 1536 1537 1538 1539 1541 1542 1543 1544 1545
1511 1515 1519 1517 1514 1511 1504 1504 1505 1506 1510 1513 1513 1516 1520 1522 1523 1523 1523 1524 1524 1523 1523 1522 1521 1520 1521 1522 1523 1525 1526 1528 1528 1529 1530 1531 1532 1533 1534 1535 1537 1538 1539 1541 1542 1543 1544 1545 1546
1511 1518 1522 1514 1510 1507 1503 1504 1507 1508 1510 1513 1514 1516 1519 1522 1523 1524 1524 1525 1525 1525 1524 1524 1523 1523 1523 1524 1525 1526 1528 1529 1530 1531 1532 1533 1534 1534 1535 1536 1538 1539 1540 1542 1543 1544 1545 1546 1547
1508 1518 1512 1502 1501 1502 1502 1503 1506 1510 1512 1515 1517 1519 1521 1523 1524 1524 1525 1526 1526 1526 1526 1525 1525 1525 1525 1526 1527 1528 1530 1531 1532 1533 1534 1535 1535 1536 1536 1538 1539 1540 1541 1543 1544 1544 1545 1546 1547
1505 1508 1501 1499 1498 1499 1501 1504 1505 1509 1514 1514 1516 1519 1521 1523 1524 1525 1526 1527 1527 1527 1527 1527 1527 1528 1528 1528 1530 1530 1531 1532 1533 1534 1535 1536 1536 1537 1538 1539 1540 1541 1542 1543 1544 1545 1545 1546 1546
1503 1501 1499 1498 1498 1499 1501 1504 1506 1507 1511 1513 1515 1517 1520 1523 1525 1526 1526 1527 1528 1528 1529 1529 1529 1530 1530 1531 1531 1532 1533 1534 1535 1535 1536 1537 1537 1538 1539 1540 1541 1542 1543 1544 1544 1545 1545 1545 1546
1500 1499 1498 1498 1498 1499 1500 1503 1506 1509 1512 1514 1517 1519 1521 1523 1525 1526 1527 1528 1529 1530 1530 1531 1531 1532 1532 1532 1533 1534 1535 1536 1536 1536 1537 1537 1537 1538 1539 1540 1541 1542 1543 1544 1544 1544 1545 1545 1545
1499 1497 1497 1497 1498 1499 1501 1505 1507 1512 1513 1515 1517 1519 1521 1523 1524 1526 1528 1529 1530 1531 1532 1532 1533 1533 1534 1534 1535 1536 1537 1537 1537 1538 1538 1538 1538 1538 1539 1540 1541 1542 1543 1544 1544 1544 1544 1545 1545
1498 1499 1499 1498 1498 1500 1502 1509 1508 1511 1513 1515 1518 1520 1521 1523 1524 1526 1527 1529 1530 1531 1532 1533 1534 1535 1535 1536 1537 1537 1538 1538 1538 1539 1539 1539 1538 1539 1539 1541 1541 1542 1543 1543 1544 1544 1544 1545 1545
1501 1506 1512 1501 1498 1500 1506 1519 1510 1510 1512 1515 1518 1520 1521 1523 1524 1526 1528 1529 1530 1531 1533 1534 1535 1536 1536 1537 1538 1538 1539 1539 1539 1540 1540 1540 1540 1540 1540 1541 1542 1542 1543 1544 1544 1544 1544 1545 1545
1512 1519 1515 1505 1497 1499 1505 1514 1509 1510 1511 1514 1517 1519 1521 1522 1524 1525 1527 1528 1530 1531 1533 1534 1535 1536 1537 1538 1539 1539 1540 1540 1541 1541 1541 1541 1541 1541 1541 1541 1542 1543 1543 1544 1544 1544 1544 1544 1544
1521 1517 1513 1508 1499 1500 1505 1508 1508 1509 1510 1512 1515 1517 1519 1521 1522 1524 1526 1528 1530 1531 1533 1534 1535 1537 1538 1538 1539 1540 1540 1541 1541 1541 1541 1541 1542 1542 1542 1542 1542 1543 1543 1543 1544 1544 1544 1544 1544
1507 1511 1512 1504 1495 1500 1505 1506 1505 1506 1509 1511 1513 1515 1517 1519 1522 1523 1526 1528 1529 1531 1532 1534 1535 1537 1538 1538 1539 1540 1540 1541 1541 1542 1542 1542 1542 1542 1542 1542 1543 1543 1543 1543 1543 1543 1543 1544 1544
1503 1510 1509 1502 1495 1499 1505 1506 1503 1504 1505 1506 1509 1512 1515 1518 1521 1523 1525 1527 1528 1530 1531 1533 1535 1536 1537 1538 1539 1540 1540 1541 1541 1541 1542 1542 1542 1542 1542 1542 1542 1542 1542 1542 1543 1543 1543 1543 1544
1503 1507 1506 1505 1500 1500 1507 1514 1509 1506 1505 1507 1509 1510 1513 1515 1518 1521 1523 1525 1527 1529 1530 1532 1534 1535 1536 1538 1539 1540 1540 1540 1541 1540 1541 1541 1541 1541 1541 1541 1541 1541 1541 1541 1542 1542 1542 1542 1543
1508 1496 1497 1501 1510 1520 1514 1534 1516 1508 1507 1507 1508 1509 1511 1514 1516 1518 1521 1523 1525 1527 1529 1531 1533 1534 1536 1537 1538 1538 1539 1539 1539 1540 1540 1541 1541 1541 1541 1541 1540 1541 1541 1541 1541 1541 1541 1541 1541
1497 1491 1495 1500 1510 1520 1518 1530 1524 1511 1512 1507 1505 1506 1507 1510 1513 1515 1518 1520 1523 1526 1528 1530 1532 1533 1535 1536 1537 1537 1538 1538 1539 1539 1539 1540 1540 1540 1540 1540 1540 1539 1539 1539 1539 1540 1539 1539 1539
1488 1493 1499 1508 1519 1535 1526 1530 1529 1515 1507 1504 1503 1504 1506 1508 1511 1513 1516 1519 1522 1524 1526 1528 1530 1532 1533 1534 1535 1536 1536 1537 1537 1538 1538 1538 1538 1538 1538 1538 1538 1538 1538 1538 1538 1538 1538 1538 1537
1491 1511 1533 1538 1546 1542 1523 1526 1524 1502 1496 1496 1498 1501 1504 1506 1509 1511 1514 1517 1519 1522 1524 1526 1528 1530 1531 1532 1533 1534 1535 1535 1536 1536 1536 1536 1536 1536 1536 1537 1536 1536 1536 1536 1536 1536 1536 1536 1535
1495 1508 1535 1548 1550 1541 1525 1527 1512 1494 1492 1493 1495 1498 1502 1505 1507 1509 1511 1514 1516 1519 1521 1523 1526 1527 1529 1530 1531 1532 1533 1534 1534 1534 1535 1535 1535 1535 1535 1535 1535 1534 1534 1534 1534 1534 1534 1533 1533
1496 1506 1509 1528 1535 1542 1534 1520 1506 1493 1493 1493 1496 1497 1500 1502 1505 1507 1510 1512 1514 1517 1519 1521 1523 1525 1527 1528 1529 1530 1531 1532 1532 1532 1533 1533 1534 1534 1533 1533 1533 1533 1532 1532 1532 1531 1531 1531 1530
1486 1496 1513 1528 1543 1549 1537 1526 1519 1504 1499 1496 1495 1496 1498 1500 1503 1506 1508 1510 1512 1515 1517 1519 1521 1523 1524 1526 1527 1528 1529 1529 1530 1530 1530 1531 1531 1531 1531 1531 1531 1530 1530 1529 1529 1528 1528 1528 1527
1492 1499 1511 1525 1530 1545 1548 1532 1498 1497 1493 1493 1493 1494 1496 1499 1502 1504 1507 1509 1511 1513 1515 1517 1518 1520 1522 1523 1525 1526 1527 1527 1528 1528 1528 1528 1529 1529 1529 1529 1529 1528 1528 1527 1527 1526 1526 1525 1524
1484 1493 1507 1524 1530 1532 1538 1527 1489 1490 1489 1490 1492 1493 1495 1497 1500 1502 1505 1507 1509 1511 1512 1514 1515 1517 1519 1521 1522 1523 1524 1525 1525 1525 1526 1526 1526 1526 1526 1526 1526 1526 1525 1525 1524 1524 1523 1522 1521